Flag for Brazil Weather past 2 weeks in Brasilia, Distrito Federal, Brazil

Now
70 °F

Thunderstorms. Partly cloudy.


Feels Like: 70 °F
Forecast: 68 / 87 °F
Wind: 3 mph from West

Location: Brasilia Aeroporto

Current Time: Oct 2, 2014 at 12:34:48 AM

Latest Report: Oct 2, 2014 at 12:00 AM


Visibility: N/A

Pressure: 30.15 "Hg

Humidity: 78%

Dew point: 63 °F

Location of BrasiliaLocation

Historic Weather in Brasilia — Graph

°F

Brasilia temperature yesterday

Maximum temperature yesterday: 91 °F (at 12:00 PM)
Minimum temperature yesterday: 66 °F (at 5:00 AM)
Average temperature yesterday: 75 °F

Past Weeks' High & Low Weather Summary

 TemperatureHumidityPressure
High93 °F (Sep 17, 3:00 PM)83% (Oct 1, 6:00 PM)30.18 "Hg (Oct 1, 6:00 PM)
Low55 °F (Sep 20, 4:00 AM)14% (Sep 17, 3:00 PM)29.98 "Hg (Sep 26, 5:00 PM)
Average79 °F44%30.09 "Hg
* Reported Sep 16 11:00 PM — Oct 1 11:00 PM, Brasilia, Weather by CustomWeather, © 2014

Note: Actual official high and low records may vary slightly from our data, if they occured in-between our weather recording intervals... More about our weather records

Advertising

Brasilia weather history for previous 24 hours

 ConditionsComfort  
Time TempWeatherWind HumidityBarometerVisibility
11:00 PM
Oct 1
70 °FThunderstorms. Passing clouds.13 mph78%N/A5 mi
10:00 PM75 °FThundershowers. Passing clouds.12 mph74%30.12 "HgN/A
9:00 PM75 °FThundershowers. Passing clouds.6 mph69%N/AN/A
8:00 PM73 °FPassing clouds.No wind78%30.09 "HgN/A
7:00 PM73 °FPassing clouds.No wind78%30.07 "HgN/A
6:00 PM72 °FScattered clouds.No wind83%30.07 "HgN/A
5:00 PM72 °FLight rain. Scattered clouds.3 mph78%30.04 "HgN/A
4:00 PM70 °FThunderstorms. Broken clouds.10 mph78%30.04 "HgN/A
3:00 PM66 °FMild.44 mph78%30.12 "Hg0 mi
2:00 PM91 °FThunderstorms. Partly sunny.7 mph34%30.04 "HgN/A
1:00 PM90 °FPartly sunny.7 mph31%30.07 "HgN/A
12:00 PM91 °FPartly sunny.10 mph28%30.09 "HgN/A
11:00 AM88 °FPassing clouds.9 mph35%30.15 "HgN/A
10:00 AM84 °FSunny.8 mph40%30.15 "Hg10 mi
9:00 AM81 °FSunny.2 mph51%30.15 "Hg10 mi
8:00 AM75 °FSunny.5 mph61%30.15 "Hg10 mi
7:00 AM68 °FPartly sunny.No wind78%30.15 "HgN/A
6:00 AM68 °FPassing clouds.3 mph73%30.09 "HgN/A
5:00 AM66 °FPassing clouds.2 mph78%30.09 "HgN/A
4:00 AM68 °FPassing clouds.No wind73%30.07 "HgN/A
3:00 AM68 °FPassing clouds.No wind73%30.07 "HgN/A
2:00 AM70 °FPassing clouds.1 mph73%30.07 "HgN/A
1:00 AM72 °FPassing clouds.1 mph69%30.07 "HgN/A
12:00 AM72 °FPassing clouds.2 mph69%30.09 "HgN/A
Weather by CustomWeather, © 2014

See weather overviewHow to use our weather pages